Location: Unspecified
(0.0000°N, 0.0000°E)
Time: 16:02:51
(UTC+00:00)

A-11 Canister half - All Passes

Search period start: 28 March 2015 00:00
Search period end: 07 April 2015 00:00
Orbit: 1527 x 1682 km, 47.3° (Epoch: 27 March)

Date Brightness Start Highest point End Pass type
(mag) Time Alt. Az. Time Alt. Az. Time Alt. Az.
28 Mar - 01:01:40 10° NW 01:11:07 87° NE 01:20:27 10° SE night (unlit)
28 Mar - 03:10:27 10° W 03:16:27 18° SW 03:21:55 10° S visible
28 Mar - 11:48:28 10° SSW 11:57:29 40° SE 12:06:47 10° ENE daylight
28 Mar - 13:53:04 10° WSW 14:02:38 47° NW 14:12:09 10° NNE daylight
28 Mar - 22:39:31 10° NNE 22:43:57 15° NE 22:49:01 10° ENE night (unlit)
29 Mar - 00:40:08 10° NW 00:49:35 82° NE 00:58:54 10° SE night (unlit)
29 Mar - 02:48:26 10° W 02:54:51 19° SW 03:00:44 10° S visible
29 Mar - 11:27:04 10° SSW 11:35:53 37° SE 11:45:01 10° ENE daylight
29 Mar - 13:31:24 10° WSW 13:41:03 50° NW 13:50:41 10° NNE daylight
29 Mar - 22:18:31 10° NNE 22:22:18 13° NE 22:26:48 10° ENE night (unlit)
30 Mar - 00:18:37 10° NW 00:28:03 77° NE 00:37:21 10° SE night (unlit)
30 Mar - 02:26:30 10° W 02:33:15 21° SW 02:39:32 10° S visible
30 Mar - 11:05:42 10° SSW 11:14:17 34° SE 11:23:14 10° ENE daylight
30 Mar - 13:09:44 10° SW 13:19:27 54° NW 13:29:13 10° NNE daylight
30 Mar - 21:57:41 10° NNE 22:00:39 12° NE 22:04:26 10° ENE visible
30 Mar - 23:57:06 10° NNW 00:06:31 72° NE 00:15:48 10° SE night (unlit)
31 Mar - 02:04:35 10° W 02:11:39 23° SW 02:18:18 10° S night (unlit)
31 Mar - 10:44:21 10° S 10:52:40 32° SE 11:01:26 10° ENE daylight
31 Mar - 12:48:05 10° SW 12:57:52 57° NW 13:07:43 10° NNE daylight
31 Mar - 21:37:06 10° NNE 21:39:00 11° NE 21:41:46 10° ENE visible
31 Mar - 23:35:35 10° NNW 23:44:59 67° NE 23:54:13 10° SE night (unlit)
01 Apr - 01:42:42 10° W 01:50:05 25° SW 01:57:02 10° S night (unlit)
01 Apr - 10:23:00 10° S 10:31:04 30° SE 10:39:36 10° ENE daylight
01 Apr - 12:26:27 10° SW 12:36:17 61° NW 12:46:14 10° NNE daylight
01 Apr - 14:40:38 10° NW 14:42:36 10° NW 14:43:34 10° NW daylight
01 Apr - 23:14:05 10° NNW 23:23:26 63° NE 23:32:39 10° SE night (unlit)
02 Apr - 01:20:51 10° WNW 01:28:30 27° SW 01:35:45 10° S night (unlit)
02 Apr - 10:01:41 10° S 10:09:28 28° SE 10:17:45 10° ENE daylight
02 Apr - 12:04:50 10° SW 12:14:42 65° NW 12:24:43 10° NNE daylight
02 Apr - 14:17:25 10° WNW 14:20:54 11° NW 14:23:28 10° NNW daylight
02 Apr - 22:52:36 10° NNW 23:01:55 58° NE 23:11:03 10° SE night (unlit)
03 Apr - 00:59:02 10° WNW 01:06:56 29° SW 01:14:27 10° S night (unlit)
03 Apr - 09:40:23 10° S 09:47:51 25° SE 09:55:52 10° E daylight
03 Apr - 11:43:14 10° SW 11:53:08 70° NW 12:03:12 10° NNE daylight
03 Apr - 13:54:49 10° WNW 13:59:13 13° NW 14:02:46 10° NNW daylight
03 Apr - 22:31:08 10° NNW 22:40:21 54° NE 22:49:26 10° SE visible
04 Apr - 00:37:14 10° WNW 00:45:21 31° SW 00:53:08 10° S night (unlit)
04 Apr - 09:19:07 10° S 09:26:14 24° SE 09:33:56 10° E daylight
04 Apr - 11:21:39 10° SW 11:31:34 74° NW 11:41:39 10° NNE daylight
04 Apr - 13:32:26 10° WNW 13:37:33 14° NW 13:41:51 10° NNW daylight
04 Apr - 22:09:39 10° NNW 22:18:48 51° NE 22:27:49 10° ESE visible
05 Apr - 00:15:27 10° WNW 00:23:47 33° SW 00:31:47 10° SSE night (unlit)
05 Apr - 08:57:52 10° S 09:04:37 22° SE 09:12:00 10° E daylight
05 Apr - 11:00:05 10° SW 11:09:59 79° NW 11:20:06 10° NE daylight
05 Apr - 13:10:12 10° WNW 13:15:52 15° NW 13:20:50 10° NNW daylight
05 Apr - 21:48:11 10° NNW 21:57:15 47° NE 22:06:11 10° ESE visible
05 Apr - 23:53:42 10° WNW 00:02:14 36° SW 00:10:26 10° SSE night (unlit)
06 Apr - 08:36:40 10° S 08:42:59 20° SE 08:49:59 10° E daylight
06 Apr - 10:38:31 10° SW 10:48:25 84° NW 10:58:33 10° NE daylight
06 Apr - 12:48:03 10° W 12:54:12 17° NW 12:59:43 10° N daylight
06 Apr - 21:26:45 10° NNW 21:35:42 44° NE 21:44:31 10° ESE visible
06 Apr - 23:31:58 10° WNW 23:40:40 39° SW 23:49:03 10° SSE night (unlit)
